Theta_e
337 337 338 338 337 336 336 336 336 335 334 333 333 333 331 331 331 331 330 330 330 329 328 326 326 325 324 323 322 320 320 321 320 320 319 318 318 317 316 316 316 313
337 338 337 335 336 336 336 337 336 335 333 334 334 333 332 331 330 330 329 328 327 327 326 325 324 323 323 322 321 319 318 319 318 319 318 317 316 316 316 315 314 313
336 337 336 336 335 335 337 337 336 335 334 334 334 333 331 330 329 329 328 328 326 325 325 324 323 322 321 320 320 319 318 318 317 317 317 315 315 315 314 313 312 312
336 335 335 336 336 336 336 334 334 336 336 333 332 331 330 329 329 328 327 326 325 324 324 323 322 321 320 319 319 317 318 317 316 316 315 315 314 313 313 313 312 312
335 335 336 336 336 336 335 334 334 335 335 334 333 331 329 329 328 327 326 325 324 323 323 322 321 320 319 318 317 316 316 315 316 315 314 313 314 313 313 312 312 311
336 336 335 334 335 335 334 333 334 334 334 333 331 330 329 328 327 326 325 324 323 322 321 321 320 319 319 317 317 315 315 314 313 313 312 312 312 312 311 311 311 310
336 336 335 335 335 335 335 335 335 335 334 333 331 330 329 327 326 326 325 323 322 322 320 320 319 318 318 317 315 314 313 313 312 312 311 311 311 311 311 310 309 308
336 337 335 334 333 333 334 334 334 334 333 332 331 329 329 327 326 326 325 323 322 321 320 319 318 316 316 315 313 313 313 313 313 311 311 311 311 310 310 310 309 307
337 335 334 334 333 333 334 333 333 333 332 332 331 329 328 327 326 326 324 323 321 321 319 318 317 315 315 314 312 311 311 312 312 312 311 310 310 309 308 309 308 308
335 333 333 334 333 333 333 333 333 332 332 331 330 329 327 327 327 325 323 322 321 320 319 317 316 315 314 312 311 311 311 310 311 312 311 310 310 309 309 309 309 308
333 333 333 334 333 332 333 333 332 332 331 330 330 328 327 326 325 325 323 322 321 319 318 317 316 314 312 312 311 312 311 311 311 311 311 311 311 310 310 310 310 309
333 332 333 333 333 332 332 332 332 331 330 329 328 327 327 326 325 324 323 322 320 319 319 317 316 315 312 311 311 311 312 312 312 312 311 311 311 310 310 311 310 309
332 332 333 333 333 332 332 331 331 330 329 327 327 326 326 325 325 324 323 322 321 320 318 317 316 314 313 312 311 311 311 311 311 311 311 312 311 311 311 311 310 310
331 332 333 332 333 333 332 331 330 329 328 327 326 325 325 324 324 324 323 322 321 320 319 318 317 315 313 311 311 311 311 311 311 311 311 311 312 312 312 311 311 310
331 332 332 331 331 331 331 330 329 327 326 325 325 325 325 325 325 324 323 322 321 320 319 319 317 316 314 312 311 310 311 311 310 311 311 311 311 312 311 311 311 311
331 332 331 331 331 330 329 328 326 325 324 323 323 324 324 324 325 324 323 321 320 319 319 319 317 317 313 306 306 311 311 310 311 311 310 311 311 311 311 311 311 311
330 330 329 329 329 329 327 325 323 323 322 322 321 321 322 323 324 323 322 322 320 319 319 319 318 315 300 299 299 302 310 312 311 311 311 311 311 311 311 311 310 308
329 328 329 328 327 325 324 322 322 322 321 321 320 320 321 323 323 322 322 322 321 320 319 319 318 304 296 297 298 299 304 311 312 311 311 311 311 310 310 311 310 310
328 328 328 327 325 323 322 321 320 320 320 319 319 320 321 321 322 322 322 322 321 319 319 318 317 297 296 296 297 298 299 307 312 312 311 311 311 311 310 310 311 311
327 325 324 324 323 321 320 319 319 319 320 320 320 319 319 321 323 322 322 321 321 320 319 318 315 297 295 295 296 296 297 300 313 312 312 311 311 311 311 311 311 311
324 324 322 320 319 318 318 319 319 320 320 319 319 318 318 320 322 322 322 322 321 320 319 318 313 294 294 294 294 294 295 297 313 312 312 312 311 311 311 311 311 311
323 323 321 318 315 315 316 318 319 320 319 319 318 318 318 320 321 322 321 321 320 320 319 317 310 293 293 293 293 294 293 309 312 312 312 311 311 311 311 311 311 311
323 320 319 317 316 315 315 318 319 318 319 318 317 317 316 317 318 320 320 320 319 319 318 316 308 296 292 293 293 292 298 309 311 310 311 310 310 310 310 310 311 310
319 318 316 314 315 315 317 318 319 319 318 317 317 316 315 316 317 317 319 319 319 318 318 315 310 299 292 292 292 292 300 309 310 309 310 310 310 310 310 310 310 305
319 317 316 315 315 317 318 318 317 315 315 316 317 316 315 315 315 316 316 316 317 318 311 313 311 300 292 292 292 292 301 310 308 309 308 309 309 308 310 310 310 306
319 316 316 316 316 316 316 317 315 313 313 314 314 314 313 312 312 314 313 314 315 315 312 313 310 305 298 291 292 293 294 309 309 308 307 308 308 307 307 309 309 308
Wind_Speed
8 7 6 4 8 8 9 9 8 9 8 8 8 7 7 7 8 8 7 7 6 6 6 6 6 6 6 5 4 5 5 6 6 6 7 7 7 7 7 7 6 5
10 9 9 9 6 5 8 9 9 9 9 8 7 7 8 8 8 8 8 8 7 7 7 6 6 6 5 5 5 5 6 6 6 4 7 8 7 7 7 6 6 5
9 9 9 11 10 11 10 9 8 9 9 8 8 8 8 8 8 8 8 8 8 7 6 6 6 6 6 6 6 5 6 6 6 6 7 7 6 6 6 6 6 6
13 12 12 11 10 11 10 11 9 8 8 9 8 8 8 9 9 9 9 8 7 7 6 6 7 6 6 6 6 6 6 6 6 6 7 6 6 6 6 5 5 5
13 11 10 10 9 10 10 12 12 10 10 9 9 9 9 10 10 10 9 8 8 7 7 7 7 7 6 6 6 6 6 5 5 6 6 7 6 6 5 5 5 6
12 11 12 12 12 12 11 12 12 11 10 10 10 9 10 10 10 10 9 9 8 8 7 7 7 6 6 6 6 6 5 6 6 7 8 7 7 6 5 6 6 6
12 12 13 12 13 13 13 13 12 11 10 10 10 10 10 10 10 10 10 9 9 8 8 7 7 7 6 6 6 6 6 7 7 8 8 7 7 7 6 6 7 8
14 12 13 12 13 13 11 13 12 11 11 11 10 10 10 10 11 10 9 10 9 9 8 8 8 7 7 6 7 7 7 5 7 8 8 8 7 7 7 5 6 8
13 12 13 14 14 13 14 13 13 12 11 11 11 10 10 10 10 10 10 10 9 9 8 8 8 7 7 7 7 7 7 7 7 8 8 8 8 8 7 7 7 7
12 13 15 15 15 13 14 14 11 11 10 11 11 10 11 10 10 10 10 10 9 9 9 8 8 7 8 7 8 8 8 9 8 8 7 7 7 8 7 6 7 7
14 14 15 15 15 14 15 14 11 11 10 11 11 10 11 11 10 10 10 10 9 9 9 8 8 8 8 8 7 7 8 8 8 8 8 7 7 7 7 6 6 6
15 14 15 16 15 14 15 13 11 11 11 9 11 11 11 11 11 9 9 10 10 10 9 9 8 8 8 9 8 8 8 8 8 8 8 8 8 7 7 6 6 6
13 13 14 14 14 14 14 12 11 11 11 11 10 11 11 11 11 11 9 10 10 9 9 9 9 8 8 8 9 9 9 9 9 9 8 7 7 8 7 7 7 6
8 10 11 12 12 14 14 12 11 11 10 10 10 11 11 11 11 10 10 9 9 9 9 9 8 8 8 9 9 9 9 9 9 9 8 8 8 7 7 7 7 7
13 11 11 14 14 14 15 12 11 10 10 10 9 10 9 11 11 11 11 10 10 9 9 8 8 7 7 8 9 9 9 9 9 9 9 9 8 8 7 7 7 7
14 13 14 14 16 15 15 12 11 10 10 10 10 10 10 10 11 11 10 10 10 10 9 8 7 6 6 7 8 9 9 8 8 9 9 8 8 8 7 7 7 7
13 12 13 15 15 14 11 11 11 10 10 10 10 10 10 11 12 12 11 10 11 10 10 8 7 6 10 6 4 7 9 8 8 8 8 8 8 8 7 7 8 9
12 13 13 13 12 12 12 11 11 11 11 10 10 10 10 10 12 12 12 11 10 10 10 8 7 11 11 8 7 6 5 8 8 8 8 8 8 7 7 7 8 8
13 14 14 13 12 12 11 10 11 11 11 11 11 10 9 10 12 12 12 11 10 11 10 9 8 12 11 10 9 7 4 6 8 7 7 7 7 7 7 7 7 7
14 13 12 12 12 11 10 11 11 11 10 10 9 9 9 10 12 12 11 11 11 10 10 9 9 12 12 11 10 8 7 8 7 8 7 7 7 7 7 7 7 7
12 13 13 12 10 10 11 11 11 10 11 10 9 10 10 10 12 12 10 10 10 10 10 9 8 14 12 12 10 9 8 8 6 7 7 7 7 7 7 7 7 6
13 12 13 13 11 9 10 11 11 12 12 10 9 9 8 8 9 9 10 10 10 11 10 9 9 15 12 12 10 10 8 7 7 7 7 7 7 7 7 6 6 6
14 13 11 13 14 12 11 12 11 11 10 9 10 10 9 9 9 8 9 10 10 10 10 9 10 11 12 12 11 11 9 9 7 8 7 8 8 7 7 6 6 7
12 12 11 10 11 13 12 10 10 8 9 10 11 11 10 10 9 8 9 9 10 10 10 9 10 11 12 12 12 12 11 8 8 8 8 7 8 7 7 7 5 6
12 13 13 12 12 10 10 10 10 10 9 9 9 9 9 8 8 8 8 7 9 9 9 10 10 11 12 12 12 13 11 7 8 7 8 8 7 8 6 6 6 6
11 12 13 14 13 11 10 9 8 8 9 9 8 8 8 8 8 7 8 8 8 8 8 8 10 10 11 12 12 12 13 8 8 7 8 8 7 8 7 6 7 7
Wind_Direction
175 197 162 210 195 185 184 180 171 167 163 154 148 148 143 137 144 139 133 132 126 120 108 104 104 103 100 100 100 98 91 85 81 79 80 78 76 73 70 65 57 56
179 179 175 185 204 178 183 179 165 163 161 152 145 138 137 142 140 141 136 133 130 116 114 111 110 110 112 109 106 101 97 95 94 92 91 91 91 83 76 70 68 67
165 183 182 184 176 184 181 171 165 161 160 148 139 140 141 141 142 140 141 135 124 121 116 114 111 109 109 108 107 102 100 99 94 91 87 82 79 80 82 77 74 69
176 180 183 188 187 177 171 165 166 166 154 149 145 142 142 145 145 142 138 134 125 123 120 116 115 113 111 111 109 102 102 98 95 98 96 90 82 81 79 79 75 73
178 181 178 175 183 171 171 167 167 166 161 149 143 143 146 149 147 144 143 136 132 127 125 123 117 116 120 116 115 112 109 106 104 99 95 93 90 91 90 88 86 83
178 177 173 175 178 173 171 173 169 163 159 147 146 146 150 152 149 148 142 139 137 131 129 125 124 123 120 120 119 112 111 106 107 106 102 102 102 94 95 94 90 82
184 180 174 175 176 174 173 171 170 162 160 149 149 148 153 154 151 148 143 141 140 137 131 127 125 124 125 125 118 113 106 109 113 111 109 107 108 105 99 94 89 86
178 169 173 171 170 173 168 173 168 163 160 151 150 150 157 156 152 148 144 145 141 136 131 127 128 126 130 125 120 119 116 115 115 115 115 114 111 105 101 94 90 87
171 170 171 169 167 169 173 172 168 162 161 159 150 155 159 158 152 150 147 145 141 137 133 130 127 128 128 127 125 127 126 125 122 121 122 122 119 113 108 106 102 96
167 170 172 169 167 169 174 171 161 157 156 156 148 154 160 157 155 151 148 147 143 139 136 136 131 132 134 131 132 129 132 131 128 127 126 123 120 117 114 109 103 101
170 170 171 170 167 171 173 169 157 156 161 153 151 157 159 159 157 152 151 149 148 146 142 139 138 137 134 134 132 137 132 133 133 128 126 121 114 111 112 112 106 97
170 169 171 170 168 169 171 164 156 157 154 153 152 154 160 162 157 155 156 152 152 148 144 141 139 137 137 141 140 140 138 133 131 132 128 125 124 121 116 112 107 100
168 171 169 169 168 169 172 164 157 154 155 153 152 152 156 164 161 158 157 156 151 148 148 143 139 140 139 144 147 146 143 140 136 135 133 129 125 120 118 114 108 102
171 181 169 162 168 171 173 163 154 155 154 149 151 156 161 163 162 160 156 158 150 152 147 144 142 145 147 152 154 151 148 146 142 142 138 134 128 125 121 118 114 110
174 172 163 168 171 172 172 160 154 149 148 148 153 159 165 166 168 161 160 157 154 152 149 148 151 149 155 161 156 155 153 150 149 146 144 140 137 131 127 123 118 108
172 168 171 167 171 171 170 153 146 144 146 148 153 157 163 170 171 166 162 159 159 155 153 154 154 161 134 155 165 158 159 153 151 152 149 146 144 139 135 127 116 103
171 170 168 165 169 168 154 145 144 146 151 153 153 155 162 172 177 170 171 168 164 161 159 160 160 133 124 145 154 164 162 156 157 156 154 151 151 149 142 137 130 124
172 172 168 162 160 154 148 148 151 155 156 154 150 154 163 169 176 175 175 173 170 167 165 164 154 124 142 139 153 175 192 163 163 160 162 161 160 159 151 151 141 142
173 171 165 163 156 152 147 149 155 158 158 157 158 158 162 173 177 177 177 174 173 172 170 164 144 141 145 153 154 166 207 203 164 168 172 169 168 166 161 158 155 151
170 158 151 153 150 147 148 149 154 159 161 161 158 159 168 176 182 177 176 173 174 174 169 163 145 148 152 158 159 166 182 232 164 174 179 170 173 165 164 167 165 160
168 158 150 149 147 144 150 157 159 159 161 161 163 166 170 178 183 178 173 173 174 177 178 169 137 149 158 161 162 170 179 242 172 173 179 171 171 165 170 169 172 168
158 159 157 147 143 146 153 160 166 165 163 161 163 168 175 179 179 175 168 171 173 182 179 166 138 155 159 163 162 170 182 213 178 177 179 174 171 173 174 172 177 177
163 156 154 150 152 158 167 172 168 163 159 159 162 166 169 173 171 172 171 172 168 173 172 154 146 163 162 163 166 173 186 201 178 187 177 181 180 175 185 174 184 187
156 154 151 154 156 165 172 173 163 159 158 161 165 166 169 170 167 168 171 170 171 171 174 156 155 160 167 167 171 181 203 199 183 189 177 180 180 182 187 184 147 31
169 161 156 161 164 165 171 168 164 160 158 161 164 164 161 159 162 163 164 165 171 172 146 158 150 154 170 171 179 189 212 212 193 183 182 180 179 182 190 187 159 176
164 165 166 163 158 163 162 160 154 148 156 157 153 156 154 155 160 159 160 160 157 158 156 166 150 156 172 176 185 195 220 236 191 189 184 181 187 180 189 187 179 173